Theta_e
355 356 355 355 355 354 354 354 355 356 356 357 357 357 356 355 355 356 357 357 356 355 355 354 351 347 346 346 345 344 342 339 338 337 338 338 336 334 335 337 338 337
355 356 355 355 355 354 354 354 355 356 356 356 356 356 356 355 354 355 356 356 355 355 354 352 349 347 347 348 347 345 342 338 338 339 339 338 335 334 335 336 337 335
355 356 355 355 355 354 354 354 355 356 356 356 356 356 355 354 354 356 356 355 354 354 352 350 348 348 349 349 348 346 343 339 338 339 338 336 335 335 335 336 335 334
356 355 355 355 355 355 354 354 355 355 355 355 355 355 354 354 355 356 355 354 353 352 350 349 349 348 349 349 349 347 344 341 338 338 337 334 335 337 336 336 335 335
356 356 355 355 355 355 355 355 355 355 355 354 354 354 354 354 355 355 355 354 353 352 350 350 349 349 349 349 348 347 345 341 338 338 337 335 336 338 338 336 336 335
356 356 356 356 355 355 355 356 356 355 355 354 354 354 354 354 355 355 355 354 353 352 351 351 351 349 348 348 347 348 346 341 339 339 337 335 337 339 339 338 336 336
357 356 356 356 356 355 355 355 355 356 355 355 354 354 355 355 355 355 354 354 353 353 352 351 351 350 348 347 347 346 343 339 339 339 337 336 338 338 339 339 337 335
357 357 357 357 356 356 356 355 356 356 356 356 355 355 355 354 354 354 354 354 353 353 352 351 351 350 348 347 346 344 341 339 339 340 338 336 338 338 337 337 337 336
357 357 357 357 357 356 357 356 356 356 356 356 356 355 354 354 354 354 353 353 353 352 352 351 350 350 348 347 345 343 341 339 340 340 338 337 338 338 337 336 337 337
357 357 357 357 358 357 357 357 356 356 356 356 356 355 355 354 354 354 353 353 352 351 351 351 350 349 348 347 345 343 341 339 339 340 339 338 339 339 338 336 337 338
358 358 357 358 358 358 358 357 357 357 357 357 357 356 355 355 354 353 353 352 351 351 350 350 349 349 348 347 345 344 341 339 338 339 339 339 340 340 338 337 337 338
358 358 358 358 358 358 358 358 358 357 357 357 357 356 356 355 354 353 352 352 351 351 350 350 349 348 348 347 345 343 342 339 338 338 339 340 340 340 339 338 338 339
359 359 359 358 358 358 358 358 358 358 358 357 357 357 356 355 354 353 352 352 351 351 350 349 349 348 347 346 345 343 342 340 339 338 338 339 340 340 339 339 338 338
359 360 359 359 359 359 358 359 359 358 358 358 357 357 356 356 355 353 352 352 351 351 351 350 348 348 347 345 344 343 342 341 340 338 337 338 339 339 339 339 338 338
360 360 360 360 360 359 359 359 359 359 358 358 358 357 357 356 355 354 353 352 351 351 350 350 348 348 347 346 344 343 342 342 341 339 338 337 338 338 338 338 338 338
360 360 360 361 360 360 360 359 359 359 359 359 359 358 357 356 355 354 353 352 351 350 350 349 349 348 347 345 345 344 343 342 342 341 339 338 337 338 338 338 337 337
361 360 360 361 360 361 360 360 360 359 359 359 359 358 358 357 356 354 353 352 351 351 350 349 349 348 347 346 345 344 344 343 342 341 340 339 338 338 338 338 338 338
361 361 361 361 361 361 360 360 360 359 360 359 359 359 358 357 356 355 354 353 352 351 350 349 349 348 347 346 345 345 344 344 343 342 341 340 339 338 338 338 338 338
361 361 361 361 361 361 361 360 360 360 359 359 359 359 358 358 357 356 355 354 353 352 351 350 349 348 347 346 346 345 345 345 344 343 342 341 340 339 338 338 338 338
362 362 362 361 362 361 361 361 360 360 359 359 359 359 358 358 358 356 356 355 354 353 352 351 350 349 348 347 346 346 345 345 345 344 343 342 341 340 339 338 338 338
363 363 362 362 362 361 361 360 360 360 359 359 359 358 358 358 358 357 357 356 355 354 353 352 351 350 349 348 347 346 346 346 346 344 343 342 341 340 339 339 339 338
363 363 362 362 362 361 361 361 360 360 359 359 359 358 358 358 358 358 357 356 356 355 354 352 352 351 350 349 348 347 346 346 346 344 343 342 342 341 340 339 339 339
363 363 363 362 362 362 361 361 361 360 359 359 358 358 358 358 357 358 357 357 356 355 354 354 353 352 352 350 349 348 347 347 346 344 343 342 341 341 340 339 339 339
363 363 363 362 362 362 362 361 361 360 360 359 359 358 358 358 358 358 357 357 357 356 356 355 354 353 353 352 351 349 348 347 347 345 343 341 340 340 339 339 340 340
362 363 363 363 362 362 362 361 361 361 360 360 359 359 358 358 358 358 358 358 357 357 357 356 355 355 354 353 352 350 349 349 347 345 342 340 340 339 339 339 339 339
362 362 363 363 363 363 362 361 361 361 360 360 359 359 358 358 358 358 358 358 358 357 357 356 356 355 354 354 352 351 350 349 347 344 342 340 340 339 338 338 338 338
Wind_Speed
43 42 40 39 38 37 35 35 36 37 36 36 37 38 38 37 35 33 32 31 31 32 31 31 31 30 29 28 27 26 26 25 24 25 24 23 22 21 20 19 19 17
43 41 40 38 37 36 35 35 37 38 38 37 38 38 38 36 35 34 33 32 32 32 32 32 32 31 31 30 29 28 27 26 25 25 25 25 23 21 21 20 19 18
43 41 40 38 38 37 36 35 36 37 38 38 38 38 37 36 35 35 34 33 33 33 33 32 32 32 32 32 31 30 29 28 27 26 25 25 24 22 21 20 19 19
43 42 41 40 39 38 37 35 35 36 37 37 38 38 38 37 36 36 36 35 34 34 34 33 33 33 34 33 32 32 31 30 28 27 26 25 25 23 21 20 20 20
44 43 42 40 39 38 37 36 36 36 37 37 38 38 38 37 36 37 37 36 36 35 35 35 34 34 34 34 34 33 33 32 30 29 28 26 25 24 23 21 20 21
43 42 41 40 39 38 37 38 38 37 37 37 37 38 38 38 37 38 38 38 38 37 37 37 36 36 36 35 35 35 35 33 31 30 29 28 26 26 25 23 22 22
41 41 41 40 39 38 38 39 39 38 38 37 37 38 38 38 38 38 38 39 39 39 38 38 38 38 37 36 36 36 35 34 32 32 31 30 28 27 27 26 24 23
41 41 41 40 39 39 39 39 39 39 39 37 37 38 38 39 39 39 38 39 40 40 40 39 39 39 38 37 37 37 35 34 33 33 32 32 30 29 29 27 26 25
40 40 41 41 40 40 40 40 40 39 38 38 38 39 39 39 39 39 39 39 40 40 40 40 39 39 39 38 38 38 36 35 34 34 34 33 32 31 30 28 27 27
41 41 41 41 42 41 41 41 40 39 38 38 38 38 38 39 39 38 39 39 40 41 41 40 40 39 39 39 39 39 37 36 35 35 35 35 34 33 31 30 29 29
41 40 41 42 42 42 42 41 40 39 38 38 38 37 38 38 38 38 39 40 41 42 41 41 40 40 40 40 40 39 38 36 36 37 37 35 35 34 33 32 31 31
40 41 41 42 42 42 41 41 40 39 39 38 38 37 37 37 38 39 40 41 42 42 41 41 40 40 41 41 40 39 37 36 36 37 37 36 35 35 35 34 33 32
41 42 41 40 41 41 40 40 39 39 39 38 38 37 37 37 38 40 41 42 42 42 41 41 40 41 41 41 40 38 37 36 37 37 37 36 36 36 35 34 33 32
42 41 40 40 40 40 40 40 40 39 39 38 37 37 38 39 39 40 40 41 41 42 41 40 40 41 42 41 39 38 37 37 37 38 37 36 36 36 35 35 34 33
41 39 39 39 39 40 40 40 39 38 38 37 37 38 39 39 40 39 39 39 40 41 41 40 41 43 43 42 40 38 37 37 37 38 37 36 36 35 35 35 35 34
39 39 39 39 39 40 40 39 38 37 37 37 38 38 39 39 39 38 39 39 40 40 40 41 42 44 44 43 41 40 38 37 37 37 37 37 36 35 35 36 36 35
39 40 39 40 41 40 39 39 38 37 37 37 38 39 39 39 38 38 39 40 40 40 41 42 44 45 44 42 42 40 39 38 38 38 38 38 37 36 36 36 36 36
39 39 40 40 41 40 40 39 38 37 37 37 38 40 40 39 39 39 40 40 41 41 42 43 45 45 42 41 41 41 40 39 39 38 38 38 39 39 38 37 36 35
39 39 40 40 41 40 39 37 38 39 39 40 40 40 39 39 39 39 40 41 41 41 43 44 44 42 41 41 41 41 42 41 40 39 39 39 40 39 38 37 36 34
39 39 41 41 41 40 38 38 39 41 41 41 40 39 39 40 40 40 40 41 42 43 43 44 42 40 40 41 41 41 42 42 42 41 39 40 40 39 39 38 35 33
39 40 41 41 39 38 38 40 41 41 42 41 39 39 41 41 40 40 41 42 43 42 42 41 41 40 40 41 42 42 41 41 43 42 40 38 37 37 38 37 34 34
40 40 39 39 38 38 39 41 42 42 42 40 39 39 40 39 39 41 42 42 42 41 41 40 40 39 40 41 42 41 40 41 42 42 40 37 35 36 35 32 31 33
40 39 38 37 37 38 40 42 42 42 41 40 39 38 38 39 40 40 41 41 41 41 41 41 39 39 40 41 41 40 39 40 41 42 40 35 33 31 28 27 30 32
39 39 38 37 38 40 42 42 41 40 40 40 39 38 39 40 40 39 39 40 41 42 42 40 39 39 40 41 40 39 39 39 41 42 37 30 28 27 24 26 30 31
38 38 38 39 40 42 42 41 40 39 38 38 38 39 39 39 38 37 37 39 39 40 40 40 39 39 40 40 38 37 38 39 41 40 31 26 29 28 25 29 31 30
37 38 40 40 41 42 41 41 40 38 37 37 38 38 38 37 37 36 36 37 37 37 38 39 39 38 38 38 36 36 37 38 40 38 30 26 29 29 27 30 32 31
Wind_Direction
209 209 210 212 213 215 215 213 212 213 214 214 214 217 219 221 222 221 222 222 222 223 224 224 222 221 221 223 226 228 228 230 232 232 232 232 232 228 223 220 219 223
208 209 210 210 212 214 215 215 214 214 215 216 216 219 220 221 223 222 221 221 222 223 223 222 222 223 224 224 226 227 228 230 230 231 231 232 232 229 225 222 222 223
208 209 209 209 211 212 214 215 215 215 216 217 218 219 221 222 222 222 221 220 221 222 222 222 223 225 227 227 227 227 228 229 229 229 232 233 231 228 226 225 224 224
208 209 209 210 211 212 213 213 215 216 217 217 219 220 221 222 222 221 219 219 220 221 221 221 223 227 229 228 227 228 229 231 232 231 233 232 230 228 227 226 225 224
208 209 210 210 211 211 212 212 214 216 217 218 219 220 221 222 221 219 218 218 219 221 222 222 224 227 229 228 228 228 229 231 232 232 232 231 229 229 229 228 227 225
208 209 210 211 211 211 211 212 215 216 217 219 219 220 221 221 221 220 218 218 219 221 222 222 224 226 228 228 228 228 229 231 232 230 230 231 231 230 230 230 230 228
207 208 209 210 211 211 212 213 215 217 218 219 219 220 220 220 220 220 220 220 220 221 223 223 224 225 227 228 227 227 228 231 231 229 229 231 232 232 231 230 231 229
207 208 208 209 210 211 213 214 216 217 218 218 219 221 220 220 220 221 221 221 220 222 223 223 223 225 226 226 225 226 227 230 230 227 228 230 231 233 232 231 230 228
207 207 207 208 209 211 213 214 215 217 217 218 219 221 221 221 221 221 221 220 220 222 223 222 223 224 226 226 224 225 227 228 228 227 228 230 230 233 234 231 229 228
207 207 207 207 208 210 212 213 215 216 216 217 219 220 220 221 221 221 220 219 220 221 222 221 222 223 225 226 225 226 227 227 228 228 229 230 231 233 234 232 229 230
207 206 207 207 208 210 212 213 214 214 215 217 217 218 219 219 219 219 218 219 220 221 221 222 222 223 225 226 226 227 228 228 228 230 231 231 232 233 233 233 232 233
206 206 207 208 208 210 211 212 213 213 214 216 216 216 217 218 218 218 218 219 221 222 222 222 223 224 225 226 226 226 227 228 229 231 232 232 232 233 233 234 234 235
206 207 207 208 209 210 211 212 212 213 213 214 215 215 216 217 218 219 219 221 222 223 223 223 223 224 226 226 225 225 225 226 228 230 231 231 232 233 233 234 236 236
206 207 207 208 210 211 212 213 212 212 213 213 214 214 216 217 218 219 220 221 223 224 224 224 223 224 226 225 224 224 223 224 227 229 230 230 232 234 233 235 237 238
205 206 207 208 210 211 212 212 212 212 212 212 213 214 216 218 219 220 220 221 223 224 224 224 224 225 226 224 223 222 221 223 226 228 229 230 231 232 234 236 238 240
203 204 206 207 209 211 212 212 212 212 211 211 212 214 216 217 218 219 220 221 222 223 224 224 225 227 227 225 224 222 221 222 225 227 229 230 231 231 232 235 238 240
202 202 204 206 208 210 210 211 211 210 211 211 212 213 215 216 216 217 219 221 223 223 224 225 226 228 227 226 225 224 223 223 225 227 228 229 231 231 231 233 235 238
201 201 203 205 208 209 209 209 209 209 211 211 211 213 213 214 215 216 218 220 222 224 225 226 228 229 227 226 225 224 224 225 227 227 228 228 230 231 232 232 232 234
200 200 202 205 207 207 208 207 207 209 210 210 211 212 212 213 214 216 218 219 221 223 225 228 230 229 227 227 226 225 225 226 228 229 229 229 230 230 230 231 230 231
200 200 202 205 206 205 205 205 207 209 210 211 211 210 211 212 213 214 217 219 221 223 226 228 229 229 229 228 227 226 226 227 229 230 230 231 230 229 230 229 228 228
200 202 203 205 204 203 203 206 208 210 210 210 210 210 211 212 212 213 216 218 221 222 225 228 229 229 229 229 228 226 225 227 229 230 230 232 232 231 230 229 227 228
202 202 203 204 202 201 203 206 208 210 210 209 209 210 212 212 213 214 216 218 220 222 224 227 229 229 229 229 229 226 224 226 228 229 229 231 232 232 230 228 229 230
203 203 203 202 201 202 205 207 209 210 209 208 208 209 211 212 214 215 216 217 219 220 223 225 227 228 229 230 229 225 222 223 226 228 229 229 233 234 230 229 233 233
204 203 203 202 202 204 207 208 209 210 209 208 208 209 211 213 214 215 216 218 219 220 222 223 226 228 229 230 228 224 221 221 225 228 227 225 231 235 231 231 234 234
205 205 205 204 205 207 208 208 209 210 209 209 209 211 213 214 214 215 217 218 220 221 222 223 225 227 229 229 227 223 222 221 224 227 224 221 228 234 233 235 237 236
206 206 207 208 209 210 209 208 209 208 208 208 209 212 214 215 215 215 217 219 220 221 222 223 224 226 228 228 225 223 223 221 222 224 222 218 225 230 229 232 235 235